Date,TemperatureHighF,TemperatureAvgF,TemperatureLowF,DewpointHighF,DewpointAvgF,DewpointLowF,HumidityHigh,HumidityAvg,HumidityLow,PressureMaxIn,PressureMinIn,WindSpeedMaxMPH,WindSpeedAvgMPH,GustSpeedMaxMPH,PrecipitationSumIn
2013-1-1,18.9,12.8,6.6,10.0,5.0,1.0,80,71,58,30.25,30.15,8,1,0,0.00
2013-1-2,29.2,10.1,4.8,17.0,-25.4,-99.9,84,50,54,30.25,30.12,2,-296,0,0.00
2013-1-3,26.3,11.9,14.9,21.0,-37.2,-99.9,83,43,77,30.30,30.11,10,-460,0,0.00
2013-1-4,33.0,21.6,11.0,23.0,15.6,7.0,85,78,66,30.28,30.17,11,2,0,0.00
2013-1-5,35.3,15.7,17.0,30.0,-24.8,-99.9,90,52,71,30.27,29.95,5,-378,0,0.02
2013-1-6,29.5,9.1,21.5,23.0,-57.8,-99.9,82,27,76,30.34,29.93,10,-647,0,0.00
2013-1-7,39.1,11.4,16.7,25.0,-57.1,-99.9,89,24,57,30.33,30.10,8,-651,0,0.00
2013-1-8,41.6,14.0,21.7,31.0,-50.0,-99.9,90,29,64,30.17,30.02,4,-608,0,0.00
2013-1-9,46.1,23.7,26.3,31.0,-21.6,-99.9,82,38,40,30.50,30.01,16,-370,0,0.00
2013-1-10,44.8,20.5,20.6,28.0,-17.8,-99.9,89,49,40,30.50,29.89,4,-326,0,0.01
2013-1-11,48.5,30.7,45.5,47.0,-5.8,-99.9,93,60,90,29.88,29.66,5,-350,0,0.00
2013-1-12,49.2,28.3,33.8,47.0,-9.9,-99.9,91,54,73,29.99,29.69,11,-349,0,0.00
2013-1-13,22.8,11.0,11.6,19.0,-30.2,-99.9,86,49,75,30.28,29.86,12,-376,0,0.00
2013-1-14,22.1,14.5,9.1,12.0,8.4,4.0,85,77,62,30.49,30.28,6,1,0,0.00
2013-1-15,28.1,9.7,9.9,18.0,-51.3,-99.9,87,30,60,30.47,30.14,5,-574,0,0.00
2013-1-16,33.8,9.4,17.9,25.0,-61.4,-99.9,78,22,66,30.13,29.85,9,-679,0,0.00
2013-1-17,26.1,8.8,20.8,11.0,-61.2,-99.9,56,18,48,30.43,30.07,13,-643,0,0.00
2013-1-18,40.4,13.0,22.4,30.0,-53.5,-99.9,83,26,62,30.44,29.91,12,-630,0,0.03
2013-1-19,46.1,23.2,23.1,37.0,-22.8,-99.9,77,41,47,29.95,29.72,19,-399,0,0.03
2013-1-20,22.4,14.6,10.4,10.0,2.9,0.0,66,60,52,30.32,29.96,17,3,0,0.00
2013-1-21,11.2,6.9,2.0,4.0,-4.2,-9.0,73,61,47,30.32,30.17,15,5,0,0.00
2013-1-22,10.6,4.3,-3.1,-3.0,-6.3,-10.0,75,62,51,30.44,30.32,13,2,0,0.00
2013-1-23,18.6,14.1,9.2,12.0,4.8,-3.0,78,67,58,30.39,30.15,19,3,0,0.00
2013-1-24,20.1,12.5,3.0,8.0,0.2,-6.0,68,59,44,30.67,30.39,10,2,0,0.00
2013-1-25,27.7,21.7,17.3,19.0,13.8,4.0,84,72,54,30.39,30.00,9,2,0,0.00
2013-1-26,24.7,18.2,8.1,16.0,7.7,3.0,79,64,49,30.42,30.21,6,1,0,0.01
2013-1-27,34.6,28.4,22.5,32.0,22.7,16.0,91,79,67,30.40,29.91,9,1,0,0.01
2013-1-28,45.0,41.1,34.8,43.0,38.4,33.0,92,90,84,29.94,29.80,10,1,0,0.17
2013-1-29,60.0,53.9,40.3,58.0,51.7,38.0,93,92,90,29.80,29.35,7,0,0,0.91
2013-1-30,48.8,32.2,18.5,46.0,29.8,13.0,92,90,80,29.64,29.20,19,4,0,0.43
2013-1-31,18.2,11.5,2.1,13.0,5.3,-4.0,82,76,70,30.21,29.65,20,7,0,0.00
2013-2-1,12.7,5.0,-2.6,9.0,-1.6,-9.0,85,74,68,30.41,30.21,14,3,0,0.00
2013-2-2,22.4,13.7,4.4,20.0,8.7,-1.0,89,80,69,30.20,30.05,12,1,0,0.00
2013-2-3,20.4,15.5,7.4,17.0,9.9,3.0,87,78,68,30.10,29.99,14,2,0,0.00
2013-2-4,26.5,20.8,9.7,22.0,16.8,4.0,89,85,78,30.06,29.89,9,1,0,0.00
2013-2-5,29.9,21.1,5.1,26.0,16.5,1.0,86,82,75,30.11,29.83,8,1,0,0.07
2013-2-6,36.0,27.4,9.2,29.0,21.0,5.0,88,77,67,30.25,30.12,5,0,0,0.21
2013-2-7,34.3,32.5,28.8,32.0,29.7,27.0,91,89,82,30.12,29.87,6,0,0,0.62
2013-2-8,27.9,23.2,20.2,26.0,19.7,17.0,91,87,82,30.42,29.98,0,0,0,0.00
2013-2-9,32.0,26.5,23.1,26.0,22.0,20.0,89,83,75,30.42,30.09,10,0,0,0.09
2013-2-10,43.4,37.1,27.0,41.0,34.1,24.0,92,89,75,30.09,29.49,11,2,0,0.62
2013-2-11,41.3,31.8,26.9,34.0,24.4,20.0,80,74,71,30.04,29.51,23,8,0,0.00
2013-2-12,28.2,24.8,20.3,21.0,19.0,16.0,87,79,73,30.12,29.93,12,2,0,0.00
2013-2-13,40.8,29.9,19.2,32.0,25.4,16.0,90,83,71,29.93,29.74,8,1,0,0.00
2013-2-14,37.4,34.4,31.3,31.0,27.8,22.0,89,77,62,29.98,29.65,15,4,0,0.00
2013-2-15,31.2,25.3,18.0,25.0,14.7,8.0,81,65,46,30.20,29.98,13,3,0,0.00
2013-2-16,18.8,14.1,6.6,8.0,4.3,1.0,79,65,56,30.23,30.14,9,2,0,0.00
2013-2-17,28.9,18.2,4.3,16.0,6.6,0.0,83,63,42,30.25,30.01,8,1,0,0.00
2013-2-18,49.4,37.7,26.9,43.0,30.1,16.0,89,74,63,30.01,29.43,19,3,0,0.42
2013-2-19,25.7,13.8,8.3,22.0,7.6,2.0,84,76,69,30.22,29.58,22,8,0,0.00
2013-2-20,21.5,12.6,5.5,12.0,5.3,-1.0,85,73,66,30.41,30.23,10,2,0,0.00
2013-2-21,28.1,22.3,10.6,24.0,17.7,7.0,88,82,77,30.42,29.99,15,3,0,0.00
2013-2-22,32.7,26.8,23.0,30.0,24.3,20.0,92,90,88,29.99,29.81,8,2,0,0.06
2013-2-23,27.4,23.7,18.8,23.0,18.7,15.0,89,81,69,29.98,29.91,10,3,0,0.01
2013-2-24,35.0,23.4,12.6,22.0,16.6,10.0,88,76,57,30.17,29.99,4,0,0,0.03
2013-2-25,42.3,28.6,15.5,27.0,18.3,-99.9,89,71,46,30.19,29.98,6,-21,0,0.01
2013-2-26,34.8,32.6,30.6,30.0,27.9,25.0,92,83,68,29.97,29.54,20,6,0,0.01
2013-2-27,33.3,31.7,29.6,30.0,29.2,28.0,93,90,87,29.73,29.53,9,2,0,0.19
2013-2-28,35.4,31.8,26.6,30.0,26.6,19.0,90,81,71,30.08,29.73,12,4,0,0.13
2013-3-1,26.5,24.8,23.6,21.0,19.3,17.0,84,80,74,30.21,30.07,10,4,0,0.00
2013-3-2,27.2,21.9,12.8,18.0,14.0,7.0,80,72,62,30.23,30.18,11,2,0,0.01
2013-3-3,30.0,20.0,9.5,11.0,8.6,5.0,83,64,41,30.19,30.11,6,1,0,0.01
2013-3-4,32.1,24.7,12.5,24.0,17.1,8.0,86,73,56,30.16,30.01,7,2,0,0.00
2013-3-5,31.7,29.8,26.7,29.0,26.5,24.0,90,87,72,30.01,29.81,8,1,0,0.04
2013-3-6,31.6,28.7,26.1,25.0,23.8,22.0,88,82,77,30.32,30.02,11,1,0,0.11
2013-3-7,34.1,28.8,21.8,23.0,21.6,18.0,85,75,61,30.43,30.31,7,1,0,0.28
2013-3-8,39.2,28.7,14.3,26.0,21.1,11.0,89,74,59,30.50,30.31,6,0,0,0.02
2013-3-9,41.6,36.7,29.5,33.0,29.1,23.0,86,74,65,30.31,29.83,9,2,0,0.08
2013-3-10,45.6,42.5,39.0,44.0,39.8,33.0,92,90,74,29.86,29.59,7,0,0,1.12
2013-3-11,42.9,35.5,31.5,41.0,33.2,28.0,92,91,85,29.79,29.54,13,2,0,0.07
2013-3-12,35.5,30.1,25.0,28.0,24.3,19.0,88,79,69,30.03,29.79,16,5,0,0.00
2013-3-13,31.5,25.8,20.7,20.0,15.1,9.0,80,65,39,30.34,30.03,14,5,0,0.00
2013-3-14,33.5,27.6,18.9,29.0,21.4,15.0,89,78,60,30.34,30.09,6,0,0,0.00
2013-3-15,38.3,32.7,27.9,35.0,30.0,25.0,91,89,78,30.10,29.75,6,1,0,0.11
2013-3-16,32.7,30.9,29.0,31.0,26.9,21.0,92,85,72,30.14,29.73,9,3,0,0.00
2013-3-17,34.3,29.2,23.3,23.0,20.2,15.0,77,69,61,30.22,30.00,8,3,0,0.00
2013-3-18,33.4,29.0,20.3,30.0,24.2,13.0,90,82,70,30.00,29.63,21,5,0,0.11
2013-3-19,31.3,22.5,15.1,16.0,12.3,8.0,75,66,51,30.11,29.81,22,8,0,0.00
2013-3-20,24.0,17.7,11.4,12.0,7.0,2.0,82,63,55,30.13,30.05,13,5,0,0.00
2013-3-21,30.8,20.2,10.9,16.0,10.3,4.0,80,66,53,30.09,30.04,10,2,0,0.00
2013-3-22,37.1,26.2,14.7,19.0,15.1,10.0,83,64,46,30.09,30.02,8,1,0,0.00
2013-3-23,41.0,31.2,20.6,24.0,19.7,16.0,84,64,39,30.15,30.04,9,1,0,0.00
2013-3-24,35.6,32.0,28.9,27.0,24.8,22.0,88,75,62,30.05,29.68,14,5,0,0.00
2013-3-25,35.5,31.4,28.5,27.0,24.4,23.0,81,75,67,30.09,29.73,14,4,0,0.00
2013-3-26,40.7,34.4,30.5,26.0,24.5,21.0,81,68,48,30.27,30.09,10,2,0,0.00
2013-3-27,41.3,34.5,25.8,27.0,23.4,20.0,79,66,47,30.33,30.27,11,1,0,0.00
2013-3-28,47.5,36.6,25.6,26.0,22.6,19.0,81,59,41,30.37,30.29,7,1,0,0.00
2013-3-29,52.6,41.3,28.1,27.0,23.2,20.0,79,52,29,30.33,30.23,5,0,0,0.00
2013-3-30,58.2,42.7,26.2,41.0,31.2,21.0,82,66,41,30.25,29.84,7,1,0,0.01
2013-3-31,56.2,44.3,33.8,41.0,34.8,25.0,89,71,47,29.89,29.71,14,4,0,0.00
2013-4-1,38.2,32.2,26.9,25.0,16.9,12.0,70,55,38,30.20,29.90,10,2,0,0.00
2013-4-2,42.9,32.1,23.1,19.0,15.1,8.0,77,52,26,30.32,30.20,10,2,0,0.00
2013-4-3,46.3,34.3,22.0,19.0,12.9,8.0,71,44,25,30.45,30.32,6,1,0,0.00
2013-4-4,57.0,41.5,23.9,34.0,23.6,13.0,76,51,30,30.33,29.98,8,1,0,0.00
2013-4-5,48.3,40.7,32.9,32.0,24.6,14.0,77,54,39,30.21,30.01,9,2,0,0.00
2013-4-6,66.3,49.7,34.7,47.0,32.3,22.0,83,53,33,30.14,29.59,17,2,0,0.20
2013-4-7,58.6,47.7,37.5,48.0,37.4,31.0,84,69,48,29.94,29.61,10,2,0,0.00
2013-4-8,64.9,51.7,37.3,52.0,44.7,31.0,90,77,61,29.96,29.53,20,3,0,0.39
2013-4-9,56.0,44.1,40.3,48.0,39.9,37.0,89,85,74,29.97,29.81,14,4,0,0.01
2013-4-10,40.3,39.1,36.2,38.0,36.6,34.0,91,90,89,30.01,29.82,14,6,0,0.83
2013-4-11,46.7,41.3,37.2,45.0,39.3,35.0,92,92,91,29.87,29.56,16,4,0,0.39
2013-4-12,44.9,38.0,34.9,38.0,33.3,30.0,92,83,70,29.86,29.57,14,3,0,0.01
2013-4-13,44.2,37.7,32.8,31.0,28.7,25.0,85,71,54,29.99,29.84,13,4,0,0.00
2013-4-14,70.7,51.9,36.7,50.0,38.3,29.0,81,62,43,30.00,29.63,12,3,0,0.00
2013-4-15,64.4,53.8,42.5,56.0,47.8,40.0,90,81,59,29.97,29.64,15,2,0,0.62
2013-4-16,54.1,45.0,36.0,39.0,34.9,32.0,89,70,49,30.27,29.94,11,2,0,0.00
2013-4-17,46.2,40.8,40.7,44.0,30.7,-99.9,92,77,64,30.28,29.79,10,-29,0,0.96
2013-4-18,61.4,50.5,38.4,58.0,47.7,32.0,93,90,78,29.84,29.40,21,3,0,1.84
2013-4-19,38.3,35.2,32.8,32.0,26.7,-99.9,89,75,65,29.93,0.00,23,-14,0,0.00
2013-4-20,44.7,36.1,27.8,28.0,21.6,18.0,79,58,36,30.43,29.94,10,2,0,0.05
2013-4-21,52.8,41.1,26.0,32.0,26.1,20.0,83,57,39,30.52,30.32,14,2,0,0.00
2013-4-22,65.8,53.1,38.1,43.0,34.6,30.0,73,51,32,30.32,30.02,7,1,0,0.00
2013-4-23,55.2,46.3,36.4,49.0,41.3,34.0,90,83,58,30.02,29.89,9,1,0,0.70
2013-4-24,50.0,42.9,35.1,33.0,29.4,26.0,90,61,42,30.11,29.97,13,3,0,0.04
2013-4-25,50.8,42.6,35.8,36.0,31.2,27.0,87,66,43,30.32,30.05,15,3,0,0.08
2013-4-26,66.6,50.8,33.5,47.0,38.2,27.0,77,64,48,30.33,30.22,11,1,0,0.00
2013-4-27,68.2,56.1,40.6,49.0,41.2,37.0,90,61,34,30.28,29.97,6,0,0,0.00
2013-4-28,65.6,56.8,50.2,53.0,48.5,41.0,88,74,59,29.98,29.80,4,0,0,0.01
2013-4-29,72.7,61.1,48.1,55.0,51.2,46.0,91,72,50,29.89,29.73,12,1,0,0.00
2013-4-30,83.8,73.1,59.4,63.0,57.7,54.0,83,60,39,29.90,29.75,7,1,0,0.00
2013-5-1,82.3,71.5,58.8,58.0,54.1,49.0,86,57,34,30.09,29.91,6,1,0,0.00
2013-5-2,63.0,50.9,43.3,51.0,43.6,38.0,89,76,64,30.21,30.08,9,3,0,0.68
2013-5-3,49.8,44.5,38.9,47.0,41.5,36.0,91,89,87,30.15,29.95,12,4,0,0.16
2013-5-4,70.1,58.9,48.7,54.0,48.6,45.0,90,71,46,30.03,29.93,10,2,0,0.00
2013-5-5,72.1,60.1,49.1,49.0,44.0,40.0,79,58,36,30.02,29.94,11,2,0,0.00
2013-5-6,72.6,60.4,49.2,44.0,38.9,30.0,73,48,22,30.02,29.95,9,1,0,0.00
2013-5-7,76.3,63.2,47.4,48.0,40.3,33.0,69,46,24,30.02,29.95,7,1,0,0.00
2013-5-8,79.2,64.2,46.7,52.0,44.5,40.0,87,53,26,30.01,29.93,5,0,0,0.00
2013-5-9,72.5,59.0,47.9,59.0,51.3,44.0,90,76,52,29.94,29.81,7,0,0,0.45
2013-5-10,48.3,46.7,43.5,45.0,43.3,41.0,91,88,82,29.98,29.76,8,2,0,0.03
2013-5-11,57.3,47.9,39.0,49.0,36.7,27.0,91,68,32,30.04,29.83,20,3,0,0.00
2013-5-12,53.9,44.3,34.6,31.0,26.6,21.0,73,52,29,30.12,30.04,10,2,0,0.00
2013-5-13,64.6,50.5,30.7,36.0,28.8,20.0,87,49,19,30.18,29.99,7,1,0,0.00
2013-5-14,89.9,70.4,48.7,59.0,47.7,35.0,65,48,18,29.97,29.61,8,1,0,0.00
2013-5-15,81.8,74.5,65.3,57.0,47.0,36.0,59,39,19,29.80,29.60,7,1,0,0.00
2013-5-16,81.7,67.8,51.3,54.0,45.4,39.0,81,47,25,29.94,29.78,6,0,0,0.00
2013-5-17,73.0,61.6,54.4,57.0,47.9,40.0,71,61,53,30.01,29.92,13,1,0,0.00
2013-5-18,79.8,67.5,51.8,64.0,56.7,46.0,83,70,51,30.03,29.91,7,0,0,0.00
2013-5-19,85.6,72.5,56.2,67.0,60.2,53.0,91,68,45,29.92,29.72,8,1,0,0.00
2013-5-20,85.3,76.0,64.0,67.0,60.7,55.0,89,61,37,29.75,29.65,11,1,0,0.47
2013-5-21,79.9,69.9,61.1,67.0,60.8,56.0,90,74,46,29.68,29.62,6,1,0,0.00
2013-5-22,71.8,65.2,60.2,63.0,59.4,55.0,92,82,61,29.71,29.59,7,1,0,0.72
2013-5-23,60.6,50.8,39.3,55.0,45.6,33.0,91,82,68,30.28,29.71,10,2,0,0.01
2013-5-24,62.1,48.3,35.1,43.0,34.5,29.0,86,62,34,30.44,30.28,6,1,0,0.00
2013-5-25,56.8,49.6,41.3,41.0,37.7,34.0,82,64,49,30.39,30.29,3,0,0,0.00
2013-5-26,67.1,54.2,40.2,54.0,44.0,34.0,84,70,43,30.29,30.11,6,0,0,0.02
2013-5-27,61.3,57.2,52.6,57.0,53.7,48.0,91,88,81,30.12,29.83,5,1,0,0.01
2013-5-28,76.8,67.2,56.5,69.0,63.0,54.0,92,86,78,29.84,29.68,5,0,0,0.00
2013-5-29,82.6,71.6,62.3,71.0,64.3,59.0,90,78,58,29.91,29.72,6,0,0,0.02
2013-5-30,82.1,73.7,62.2,71.0,64.9,58.0,89,74,62,29.88,29.70,10,1,0,0.21
2013-5-31,75.4,68.6,62.2,67.0,63.4,59.0,92,84,70,29.81,29.68,7,0,0,0.14
2013-6-1,75.9,67.1,60.8,67.0,62.1,57.0,91,84,70,29.70,29.63,8,1,0,0.14
2013-6-2,61.3,55.1,44.3,58.0,50.0,42.0,90,83,69,30.02,29.69,10,1,0,0.00
2013-6-3,68.1,53.9,40.7,52.0,43.6,38.0,92,71,43,30.12,30.01,3,0,0,0.00
2013-6-4,72.0,58.7,44.4,50.0,44.7,41.0,89,62,41,30.14,30.05,7,0,0,0.00
2013-6-5,67.4,59.0,53.8,56.0,49.4,43.0,80,71,56,30.09,29.91,6,1,0,0.02
2013-6-6,64.2,56.7,51.3,58.0,50.5,45.0,91,81,62,29.93,29.86,8,1,0,0.49
2013-6-7,68.4,58.1,48.5,53.0,46.3,41.0,79,66,42,29.93,29.88,7,2,0,0.00
2013-6-8,73.6,60.8,43.1,48.0,43.1,37.0,89,56,30,29.98,29.90,5,0,0,0.00
2013-6-9,80.2,67.8,51.3,61.0,54.5,45.0,86,64,47,29.98,29.77,5,0,0,0.00
2013-6-10,78.4,68.7,60.5,65.0,61.0,58.0,92,78,56,29.83,29.72,8,0,0,0.04
2013-6-11,82.9,71.0,59.1,69.0,62.9,57.0,92,77,53,29.90,29.76,2,0,0,0.14
2013-6-12,85.7,70.9,63.4,74.0,65.4,61.0,91,83,66,29.89,29.56,8,1,0,0.55
2013-6-13,77.6,67.0,56.6,61.0,56.1,52.0,92,70,44,30.02,29.62,8,2,0,0.00
2013-6-14,77.3,64.3,52.6,59.0,52.4,48.0,85,67,44,30.11,29.98,6,1,0,0.00
2013-6-15,79.7,67.3,55.5,69.0,61.1,49.0,91,80,69,30.03,29.82,10,0,0,0.12
2013-6-16,84.2,74.0,64.6,66.0,61.7,53.0,85,67,45,29.89,29.83,15,2,0,0.00
2013-6-17,86.9,73.4,57.2,60.0,55.2,51.0,87,56,31,29.90,29.81,8,1,0,0.00
2013-6-18,70.4,62.4,53.3,58.0,52.3,44.0,86,71,54,30.05,29.88,11,2,0,0.00
2013-6-19,76.6,63.6,48.9,59.0,50.1,44.0,87,63,41,30.12,30.04,7,0,0,0.00
2013-6-20,86.5,71.0,51.4,67.0,56.8,43.0,79,62,43,30.13,30.01,2,0,0,0.00
2013-6-21,79.7,70.3,65.3,69.0,63.9,60.0,90,80,67,30.11,29.81,9,0,0,0.72
2013-6-22,77.8,71.4,65.8,72.0,66.9,63.0,91,86,77,30.09,29.91,4,0,0,0.25
2013-6-23,85.5,72.9,64.7,75.0,66.8,62.0,91,82,60,30.00,29.88,8,0,0,0.03
2013-6-24,83.3,70.2,65.0,72.0,65.9,62.0,92,86,64,30.03,29.83,6,1,0,0.18
2013-6-25,84.1,72.9,65.4,76.0,68.3,63.0,92,86,74,29.93,29.77,6,0,0,0.18
2013-6-26,79.0,71.2,66.4,71.0,66.2,63.0,91,84,72,29.79,29.68,7,1,0,0.01
2013-6-27,87.6,75.8,63.8,73.0,65.8,60.0,92,73,48,29.76,29.64,11,2,0,0.00
2013-6-28,79.7,72.6,65.3,64.0,60.3,58.0,77,66,51,29.68,29.56,12,3,0,0.00
2013-7-8,75.9,56.9,75.7,72.0,29.0,-99.9,88,66,88,29.94,29.93,0,-250,0,0.00
2013-7-9,83.7,77.4,71.2,76.0,72.8,69.0,92,85,76,29.95,29.82,9,1,0,0.04
2013-7-10,81.1,75.3,61.5,73.0,65.2,55.0,92,72,49,29.96,29.79,9,2,0,0.00
2013-7-11,79.3,68.4,58.2,60.0,55.8,51.0,90,67,39,30.07,29.96,5,0,0,0.00
2013-7-12,83.1,68.0,52.4,57.0,49.6,36.0,89,58,23,30.13,30.04,4,0,0,0.00
2013-7-13,84.0,71.3,55.8,62.0,58.1,53.0,91,66,39,30.13,30.06,5,0,0,0.00
2013-7-14,87.0,75.8,63.1,69.0,65.3,59.0,91,71,51,30.18,30.11,5,0,0,0.00
2013-7-15,88.6,77.7,68.2,75.0,70.6,65.0,90,79,55,30.22,30.16,5,0,0,0.00
2013-7-16,90.1,80.5,70.6,77.0,72.5,68.0,92,77,59,30.26,30.20,6,0,0,0.00
2013-7-17,90.9,81.9,71.5,76.0,72.2,69.0,90,74,56,30.27,30.13,5,1,0,0.00
2013-7-18,91.1,82.4,73.4,76.0,73.1,70.0,90,74,56,30.15,29.91,8,1,0,0.00
2013-7-19,92.4,82.6,70.7,75.0,71.2,67.0,90,70,48,29.90,29.70,11,2,0,0.25
2013-7-20,84.7,75.1,65.9,68.0,63.7,56.0,91,70,40,29.91,29.76,11,1,0,0.04
2013-7-21,86.4,73.3,62.3,70.0,64.8,60.0,92,76,49,29.92,29.80,6,1,0,0.01
2013-7-22,84.9,74.7,64.2,71.0,66.2,61.0,92,76,53,29.85,29.70,11,1,0,0.12
2013-7-23,76.1,67.7,58.1,65.0,59.9,53.0,91,77,52,29.95,29.64,8,1,0,0.08
2013-7-24,72.4,63.3,53.1,55.0,52.6,50.0,91,70,49,30.04,29.94,6,0,0,0.00
2013-7-25,78.4,65.9,51.0,60.0,55.1,49.0,92,70,50,30.09,30.01,4,0,0,0.00
2013-7-26,69.1,64.5,59.8,66.0,60.5,57.0,92,87,74,30.01,29.86,2,0,0,0.68
2013-7-27,61.4,57.9,53.5,56.0,50.5,46.0,90,77,58,29.91,29.84,12,2,0,0.01
2013-7-28,67.8,58.3,52.1,51.0,49.1,46.0,87,73,52,30.01,29.86,10,1,0,0.01
2013-7-29,74.9,63.1,52.5,59.0,54.1,49.0,89,73,54,30.15,30.01,7,0,0,0.00
2013-7-30,69.5,62.3,53.0,64.0,58.4,51.0,92,87,69,30.16,30.05,1,0,0,0.25
2013-7-31,74.4,66.5,62.1,66.0,62.8,58.0,93,88,73,30.05,29.92,5,0,0,0.21
2013-8-1,76.8,67.5,58.7,62.0,56.9,53.0,91,72,44,29.96,29.92,10,1,0,0.01
2013-8-2,82.5,71.2,59.8,68.0,62.5,57.0,92,75,57,29.91,29.81,8,1,0,0.14
2013-8-3,76.7,68.9,59.3,61.0,54.7,47.0,86,63,36,30.08,29.91,7,1,0,0.00
2013-8-4,75.6,65.9,57.1,62.0,55.9,51.0,88,71,49,30.17,30.08,7,0,0,0.00
2013-8-5,71.4,63.4,53.9,64.0,58.1,51.0,92,83,68,30.10,29.85,2,0,0,0.05
2013-8-6,81.6,71.7,65.7,73.0,67.3,62.0,92,86,73,29.87,29.79,3,0,0,0.02
2013-8-7,85.5,75.4,64.3,72.0,67.6,61.0,92,78,52,29.92,29.76,6,1,0,0.00
2013-8-8,76.5,68.5,61.8,63.0,58.2,51.0,92,72,51,29.99,29.91,8,1,0,0.00
2013-8-9,79.9,69.1,55.0,66.0,59.5,52.0,91,73,54,30.01,29.94,5,0,0,0.00
2013-8-10,80.4,70.4,59.6,63.0,57.7,54.0,89,67,44,30.09,30.01,5,0,0,0.00
2013-8-11,80.9,67.7,54.6,66.0,59.5,52.0,92,77,53,30.10,30.00,4,0,0,0.01
2013-8-12,80.1,72.4,65.2,69.0,64.6,60.0,92,77,64,30.01,29.83,6,1,0,0.01
2013-8-13,68.7,62.5,52.5,60.0,50.8,45.0,87,67,44,30.13,29.90,7,1,0,0.00
2013-8-14,71.3,59.8,48.6,54.0,49.2,46.0,92,71,43,30.20,30.12,4,0,0,0.00
2013-8-15,74.4,62.3,51.5,57.0,53.1,48.0,90,73,50,30.16,30.07,5,0,0,0.00
2013-8-16,79.9,66.2,53.6,58.0,52.2,49.0,90,64,36,30.17,30.11,5,0,0,0.00
2013-8-17,80.2,65.7,50.5,61.0,52.6,48.0,92,67,37,30.22,30.14,6,1,0,0.00
2013-8-18,82.2,67.5,53.5,63.0,55.3,51.0,92,69,38,30.18,30.07,5,0,0,0.00
2013-8-19,82.6,69.2,54.6,64.0,59.4,52.0,92,73,49,30.10,30.00,7,1,0,0.00
2013-8-20,85.9,72.4,61.4,67.0,62.8,59.0,92,74,49,30.08,29.99,7,1,0,0.00
2013-8-21,88.1,75.6,63.6,69.0,65.2,61.0,92,72,49,30.05,29.93,7,1,0,0.11
2013-8-22,74.1,69.3,63.5,68.0,65.4,60.0,92,87,79,30.12,29.96,7,0,0,0.52
2013-8-23,80.2,68.4,55.9,64.0,54.1,46.0,92,65,31,30.15,30.07,7,1,0,0.01
2013-8-24,83.1,69.7,54.8,66.0,59.7,52.0,93,73,51,30.23,30.15,2,0,0,0.00
2013-8-25,86.1,74.1,62.0,72.0,63.8,56.0,83,71,59,30.22,30.10,8,1,0,0.00
2013-8-26,88.3,76.0,64.3,75.0,68.2,61.0,90,77,63,30.12,29.96,8,1,0,0.00
2013-8-27,90.9,80.7,71.5,76.0,71.7,68.0,91,75,59,29.97,29.80,7,1,0,0.00
2013-8-28,86.0,77.1,68.0,73.0,68.3,65.0,91,75,59,29.99,29.79,6,1,0,0.00
2013-8-29,87.9,75.6,67.2,70.0,66.0,62.0,93,74,46,30.04,29.94,4,0,0,0.00
2013-8-30,92.6,75.8,63.4,77.0,68.3,61.0,92,79,55,29.94,29.71,8,1,0,0.69
2013-8-31,77.8,69.4,63.9,72.0,62.5,-99.9,92,84,78,29.83,29.74,5,-10,0,1.19
2013-9-1,81.6,70.7,61.5,72.0,65.7,59.0,93,85,69,29.79,29.70,6,0,0,0.53
2013-9-2,75.3,66.8,56.9,65.0,59.4,53.0,92,78,56,29.96,29.77,6,1,0,0.00
2013-9-3,73.1,61.4,51.7,57.0,53.4,49.0,91,77,52,30.07,29.96,3,0,0,0.01
2013-9-4,79.7,66.1,53.7,62.0,57.2,51.0,92,75,49,30.11,30.02,5,0,0,0.01
2013-9-5,73.0,66.4,55.6,64.0,56.6,48.0,91,72,50,30.21,30.08,7,1,0,0.00
2013-9-6,82.6,68.5,54.3,68.0,59.5,50.0,90,75,56,30.19,29.98,5,0,0,0.00
2013-9-7,85.9,72.1,61.9,70.0,64.4,60.0,92,78,53,29.98,29.85,10,1,0,0.06
2013-9-8,76.9,71.3,65.7,68.0,65.7,63.0,90,82,73,29.97,29.91,10,2,0,0.00
2013-9-9,89.7,77.5,65.8,77.0,70.2,63.0,91,79,64,29.93,29.78,5,0,0,0.00
2013-9-10,91.8,80.8,69.4,71.0,66.7,64.0,84,64,41,29.95,29.83,9,1,0,0.00
2013-9-11,85.4,75.9,68.6,72.0,66.9,64.0,90,74,59,30.01,29.93,5,0,0,0.00
2013-9-12,77.3,68.7,59.9,66.0,58.1,51.0,91,71,43,30.05,29.93,15,1,0,0.01
2013-9-13,65.4,56.2,47.9,54.0,44.3,41.0,86,66,42,30.16,30.05,9,1,0,0.00
2013-9-14,69.3,55.1,41.9,50.0,44.9,40.0,92,71,41,30.18,30.02,6,0,0,0.00
2013-9-15,57.8,55.1,50.4,55.0,50.9,43.0,92,86,69,30.15,29.96,7,0,0,0.73
2013-9-16,63.9,54.9,46.1,55.0,47.8,43.0,91,78,56,30.34,30.15,7,2,0,0.00
2013-9-17,69.1,56.5,43.4,56.0,49.4,41.0,93,78,57,30.32,30.09,6,0,0,0.00
2013-9-18,76.7,65.6,56.7,67.0,60.2,52.0,91,83,67,30.09,29.89,4,0,0,0.17
2013-9-19,87.5,75.0,67.1,74.0,67.6,62.0,92,79,56,29.92,29.72,5,0,0,0.01
2013-9-20,72.1,65.4,55.8,65.0,59.2,50.0,92,81,62,29.80,29.71,7,2,0,0.08
2013-9-21,63.8,55.4,45.9,51.0,47.3,42.0,89,76,54,29.93,29.79,13,2,0,0.00
2013-9-22,66.4,53.3,43.9,50.0,45.0,41.0,90,76,49,30.04,29.94,4,0,0,0.01
2013-9-23,67.5,53.9,42.4,50.0,46.0,40.0,92,77,49,30.10,30.01,4,0,0,0.00
2013-9-24,70.1,56.0,43.2,53.0,47.7,41.0,92,76,48,30.05,29.91,5,0,0,0.01
2013-9-25,69.5,57.2,47.8,55.0,49.5,46.0,93,77,51,29.96,29.91,6,1,0,0.00
2013-9-26,75.7,59.4,45.7,56.0,49.1,44.0,93,73,36,30.07,29.95,4,0,0,0.01
2013-9-27,79.6,62.3,47.0,58.0,50.0,45.0,93,68,38,30.14,30.02,5,0,0,0.01
2013-9-28,82.0,65.8,48.4,64.0,54.0,44.0,91,68,43,30.05,29.85,7,1,0,0.35
2013-9-29,67.0,56.4,45.1,59.0,47.5,42.0,91,75,42,30.04,29.91,6,1,0,0.17
2013-9-30,72.8,55.9,40.8,55.0,45.9,38.0,92,73,35,30.00,29.85,3,0,0,0.00
2013-10-1,77.8,65.4,54.1,65.0,59.4,51.0,92,81,59,29.94,29.86,7,1,0,0.00
2013-10-2,76.3,65.2,55.8,60.0,51.0,44.0,92,65,34,30.07,29.94,6,1,0,0.00
2013-10-3,76.0,66.3,55.4,70.0,62.1,49.0,92,86,75,29.96,29.82,3,0,0,0.22
2013-10-4,73.2,67.6,62.9,68.0,63.9,60.0,92,88,83,29.95,29.87,7,0,0,0.01
2013-10-5,79.1,68.7,60.8,71.0,64.4,58.0,93,86,70,29.92,29.73,11,1,0,0.02
2013-10-6,60.9,51.2,40.3,56.0,43.7,37.0,88,76,53,29.77,29.67,8,1,0,0.06
2013-10-7,68.1,52.0,40.5,46.0,43.2,37.0,91,75,41,30.07,29.76,9,1,0,0.00
2013-10-8,74.6,56.4,41.1,53.0,45.7,39.0,92,71,37,30.17,30.07,5,0,0,0.00
2013-10-9,70.6,55.8,43.1,50.0,45.2,41.0,92,71,37,30.23,30.12,7,0,0,0.00
2013-10-10,73.0,56.3,41.6,55.0,48.2,40.0,92,77,46,30.16,30.03,1,0,0,0.01
2013-10-11,74.3,60.7,48.3,58.0,51.3,46.0,92,73,50,30.05,29.91,7,0,0,0.00
2013-10-12,66.7,60.0,47.9,62.0,52.4,41.0,91,76,54,30.16,29.92,5,0,0,0.31
2013-10-13,60.0,47.9,39.9,44.0,38.8,36.0,88,73,42,30.37,30.16,7,0,0,0.00
2013-10-14,60.3,54.0,47.1,45.0,40.3,-99.9,89,67,53,30.32,30.13,7,1,0,0.00
2013-10-15,63.3,55.3,47.4,61.0,49.3,41.0,92,81,73,30.12,29.74,6,0,0,0.06
2013-10-16,51.4,48.3,43.7,47.0,43.5,39.0,87,83,78,29.93,29.82,10,2,0,0.01
2013-10-17,52.0,46.6,39.0,45.0,42.8,36.0,91,86,71,29.92,29.82,12,1,0,0.30
2013-10-18,48.1,42.3,35.7,42.0,37.3,33.0,92,83,71,29.96,29.83,9,1,0,0.01
2013-10-19,51.8,43.7,36.8,38.0,36.1,32.0,87,76,49,29.93,29.78,7,1,0,0.01
2013-10-20,58.8,46.9,33.8,46.0,39.5,31.0,90,76,58,29.88,29.71,7,0,0,0.02
2013-10-21,52.8,42.6,30.4,45.0,31.6,23.0,78,66,48,29.97,29.77,10,2,0,0.00
2013-10-22,38.6,33.5,27.2,35.0,28.5,22.0,89,82,62,29.99,29.92,4,0,0,0.07
2013-10-23,42.2,35.1,28.0,30.0,27.7,25.0,89,76,57,30.03,29.93,9,1,0,0.01
2013-10-24,40.6,35.4,30.1,29.0,25.2,20.0,81,68,46,30.31,30.02,10,2,0,0.00
2013-10-25,50.6,38.7,27.9,32.0,25.9,22.0,81,62,39,30.41,30.05,10,1,0,0.00
2013-10-26,52.8,43.0,32.4,37.0,29.6,26.0,80,60,43,30.08,29.85,10,2,0,0.00
2013-10-27,53.6,39.9,27.3,33.0,28.4,23.0,87,66,41,30.07,29.97,7,1,0,0.00
2013-10-28,52.3,42.0,31.2,41.0,34.9,28.0,89,76,64,30.37,30.06,10,2,0,0.00
2013-10-29,56.6,44.8,35.2,43.0,36.7,32.0,91,75,47,30.36,30.14,4,0,0,0.00
2013-10-30,58.6,52.9,48.3,56.0,49.6,43.0,92,88,78,30.13,29.73,4,0,0,0.56
2013-10-31,62.1,57.3,44.5,60.0,54.9,41.0,93,91,87,29.73,29.20,12,2,0,0.83
2013-11-1,46.5,43.9,40.4,42.0,39.8,37.0,90,85,80,29.73,29.36,12,2,0,0.07
2013-11-2,45.5,40.2,35.5,40.0,36.1,31.0,91,85,75,30.15,29.74,7,1,0,0.01
2013-11-3,50.5,40.6,28.4,39.0,32.1,26.0,91,74,49,30.30,30.23,5,0,0,0.01
2013-11-4,51.7,50.9,50.1,43.0,43.0,43.0,77,75,73,30.19,30.15,0,0,0,0.00
2013-11-5,53.2,50.7,48.7,49.0,46.2,43.0,90,84,78,30.24,29.93,9,1,0,0.09
2013-11-6,55.5,48.1,37.5,53.0,45.3,34.0,92,89,84,30.09,29.75,8,2,0,1.04
2013-11-7,42.1,34.2,28.9,33.0,28.5,24.0,89,80,64,30.25,30.19,13,1,0,0.00
2013-11-8,46.5,37.5,25.0,34.0,29.3,22.0,89,73,55,30.34,29.93,7,1,0,0.00
2013-11-9,55.9,47.3,38.1,40.0,35.9,24.0,80,65,52,30.11,29.84,17,4,0,0.00
2013-11-10,47.0,39.0,31.2,33.0,28.9,25.0,81,68,51,30.34,30.12,11,2,0,0.00
2013-11-11,45.2,35.6,21.3,35.0,28.5,15.0,89,76,65,30.52,30.08,11,2,0,0.07
2013-11-12,30.2,23.0,17.9,19.0,15.5,13.0,82,73,58,30.73,30.53,10,2,0,0.01
2013-11-13,38.2,27.4,16.2,21.0,17.1,11.0,84,67,43,30.62,30.18,10,1,0,0.01
2013-11-14,47.5,36.5,26.6,29.0,24.4,20.0,77,63,46,30.18,29.94,8,1,0,0.00
2013-11-15,48.6,38.9,31.2,35.0,30.6,26.0,88,73,52,29.98,29.91,7,0,0,0.00
2013-11-16,58.2,49.7,37.8,55.0,46.8,33.0,91,90,83,29.94,29.55,14,2,0,0.26
2013-11-17,65.9,53.2,40.2,62.0,49.3,35.0,92,86,76,29.71,29.13,19,4,0,0.73
2013-11-18,41.2,35.8,27.6,35.0,28.1,23.0,84,74,58,30.27,29.71,18,5,0,0.00
2013-11-19,40.4,30.7,21.1,29.0,23.8,18.0,88,77,55,30.38,30.27,9,0,0,0.00
2013-11-20,41.8,36.0,29.3,36.0,29.2,25.0,90,77,61,30.29,30.10,8,1,0,0.19
2013-11-21,47.9,43.3,38.4,43.0,39.5,36.0,90,87,81,30.20,30.11,5,0,0,0.01
2013-11-22,41.3,33.4,23.6,38.0,28.3,19.0,89,82,70,30.48,30.20,11,2,0,0.02
2013-11-23,23.4,19.3,11.8,18.0,8.8,3.0,81,64,50,30.73,30.44,12,4,0,0.00
2013-11-24,24.5,16.4,8.2,10.0,5.8,2.0,79,64,46,30.76,30.41,8,1,0,0.00
2013-11-25,29.4,26.0,19.0,26.0,19.1,10.0,87,75,61,30.40,30.08,12,1,0,0.00
2013-11-26,31.6,28.8,28.0,27.0,24.9,24.0,87,85,81,30.09,30.04,6,1,0,0.00